Hourly Data Report for April 01, 2016

MIRAMICHI RCS
NEW BRUNSWICK

47°00'34.000" N
65°27'54.000" W
33.00 m
8100989
71744
ACQ

Download Data

Hourly Data (April 2016)
Hourly Data Report for April 1, 2016
TIME
LST
Temp Definition
°C
Dew Point Definition
°C
Rel Hum Definition
%
Precip. Amount Definition
mm

Wind Dir Definition
10's deg

Wind Spd Definition
km/h
Visibility Definition
km
Stn Press Definition
kPa
Hmdx Definition


Wind Chill Definition


Weather Definition


00:00 3.1 2.4 95 0.5 32 2   100.09     LegendNANA
01:00 3.1 2.4 95 0.4 28 5   100.03     LegendNANA
02:00 3.8 3.1 95 0.2 24 6   99.93     LegendNANA
03:00 3.3 2.6 96 0.2 27 3   99.83     LegendNANA
04:00 6.4 5.7 96 0.0 21 19   99.77     LegendNANA
05:00 7.2 6.3 94 0.0 22 22   99.69     LegendNANA
06:00 8.0 7.1 94 0.0 22 19   99.63     LegendNANA
07:00 8.4 7.4 93 0.0 21 26   99.60     LegendNANA
08:00 9.1 8.0 93 0.0 23 20   99.62     LegendNANA
09:00 9.8 8.7 93 0.0 22 23   99.53     LegendNANA
10:00 10.5 9.3 92 0.0 21 20   99.48     LegendNANA
11:00 11.2 9.9 92 0.0 22 27   99.38     LegendNANA
12:00 12.3 10.7 90 0.0 22 28   99.32     LegendNANA
13:00 13.1 11.2 88 0.0 21 23   99.24     LegendNANA
14:00 13.0 11.0 88 0.0 22 25   99.21     LegendNANA
15:00 12.6 10.8 88 0.0 20 22   99.03     LegendNANA
16:00 12.6 11.0 90 0.0 21 24   98.97     LegendNANA
17:00 11.1 10.2 94 2.5 22 19   98.87     LegendNANA
18:00 10.8 10.1 96 3.0 26 10   98.87     LegendNANA
19:00 11.2 10.5 96 5.5 24 16   98.92     LegendNANA
20:00 9.8 8.8 93 0.0 19 11   98.90     LegendNANA
21:00 10.1 9.1 94 0.2 21 19   98.98     LegendNANA
22:00 10.5 9.1 91 0.2 23 26   99.05     LegendNANA
23:00 9.8 8.2 90 0.0 22 22   99.07     LegendNANA

Notes on Data Quality.

Legend

  • E = Estimated
  • M = Missing
  • NA = Not Available*
  • [empty] = Indicates an unobserved value
Date modified: